Location: Kelshall
(52.0000°N, 0.0500°W)
Time: 01:17:54
(UTC+00:00)

Cosmos 1833 Rocket - Pass Details

Date: 18 September 2020
Orbit: 831 x 841 km, 71.0° (Epoch: 30 October)

Event Time Altitude Azimuth Distance (km) Brightness Sun altitude
Rises 19:57:46 0° 330° (NNW) 3,407 6.8 -17.2°
Reaches altitude 10° 20:00:28 10° 340° (NNW) 2,470 5.8 -17.6°
Maximum altitude 20:05:36 34° 44° (NE) 1,371 3.6 -18.3°
Enters shadow 20:07:39 26° 83° (E) 1,601 3.7 -18.6°
